Temp
55 55 56 56 55 52 51 50 50 50 49 47 47 47 47 46 46 48 46 47 47 47 47 49 51 53 54 53 54 54 52 52 52 52 52 52 52 52 52 52 52 52
55 54 53 52 50 50 49 48 48 48 47 47 47 46 46 46 46 46 46 46 46 46 46 47 48 48 49 50 51 51 50 51 51 51 50 50 50 50 50 51 50 51
54 52 51 50 48 48 47 47 47 47 46 46 46 46 47 45 46 45 45 45 45 45 46 46 46 45 45 45 46 46 46 45 47 48 48 47 48 48 49 49 49 50
50 49 48 47 47 46 46 46 45 45 45 45 44 44 45 44 44 44 43 43 43 43 43 44 43 43 43 43 43 42 42 42 42 44 44 44 44 45 45 46 46 47
47 47 47 46 45 45 45 45 43 43 43 43 43 43 43 43 42 41 40 40 40 39 41 41 41 41 40 40 40 39 40 39 40 40 39 39 40 42 44 44 44 44
45 45 45 45 44 44 43 43 42 43 43 43 42 42 41 40 39 38 37 38 39 38 38 37 38 37 37 37 37 36 35 36 36 36 37 37 38 39 40 40 41 42
43 44 43 43 43 42 42 41 41 41 40 40 40 39 38 38 38 37 37 37 36 37 35 35 36 35 35 34 34 34 34 34 35 35 35 34 35 37 36 37 37 40
42 42 42 42 41 41 40 40 39 39 38 38 39 37 37 38 37 36 35 35 35 35 34 33 34 36 33 33 35 34 34 35 34 34 34 34 34 36 35 35 35 37
41 40 40 39 40 39 39 39 38 37 37 38 38 37 36 36 36 36 35 34 34 34 35 35 34 33 33 33 34 33 34 34 33 33 34 35 35 36 36 35 35 35
39 38 39 38 38 37 37 36 37 36 36 37 36 35 37 36 35 34 34 34 35 36 35 34 34 34 33 33 34 34 34 35 34 32 34 34 34 35 35 35 35 35
37 37 37 37 36 36 36 35 35 35 35 36 36 36 35 35 34 33 35 35 36 35 34 34 34 34 34 33 34 32 33 34 34 34 33 34 34 35 35 35 35 35
36 36 36 36 36 35 35 35 35 35 35 34 34 35 34 33 34 35 34 35 33 33 33 34 33 33 33 34 34 32 32 32 32 33 33 34 34 34 35 34 35 35
36 36 36 35 35 35 34 34 34 33 34 34 32 33 34 35 34 34 33 32 33 33 34 34 34 34 33 32 33 32 32 33 33 33 33 32 33 34 34 34 34 35
35 34 34 34 34 34 34 33 33 33 33 32 32 34 34 33 33 33 32 31 32 32 32 32 32 32 32 33 33 33 32 32 32 33 33 33 33 34 33 34 34 34
35 34 34 34 33 34 34 33 33 32 32 32 32 32 33 31 31 32 32 31 31 32 32 33 34 36 35 35 36 35 34 34 34 34 33 33 33 34 33 33 34 34
34 34 33 33 33 33 32 32 32 31 32 31 31 30 30 30 31 31 31 32 32 33 33 35 35 36 37 39 40 37 35 35 34 33 32 32 33 33 34 34 33 34
34 33 33 33 32 32 32 32 32 32 31 30 30 30 31 31 31 31 31 31 32 32 33 35 35 36 38 41 41 42 38 34 33 34 32 32 32 33 33 34 35 35
33 33 33 32 32 31 31 30 29 29 29 29 30 29 30 29 30 30 30 30 31 30 32 33 33 36 39 40 41 41 40 37 34 34 34 33 33 33 34 34 34 34
33 33 32 31 30 30 30 28 28 28 27 28 29 28 29 30 29 29 29 29 29 30 31 32 31 36 38 39 40 40 41 39 34 33 33 33 33 33 33 33 33 33
32 31 31 30 29 28 28 26 26 27 26 26 27 28 28 28 28 28 28 29 29 29 30 31 32 35 38 39 39 40 40 39 34 33 32 32 32 32 33 32 33 32
31 30 30 29 28 27 26 26 27 25 26 26 27 27 27 27 27 27 28 28 28 27 29 31 33 36 37 38 39 39 40 38 32 32 32 32 32 32 32 32 32 33
30 29 29 27 27 25 26 27 26 26 26 26 26 26 25 26 26 25 26 27 28 28 29 30 32 35 36 37 38 39 39 33 31 31 31 31 31 31 31 32 32 32
29 28 27 26 25 25 25 25 25 25 25 25 25 25 25 26 25 25 26 27 29 29 27 25 27 32 35 37 37 38 35 31 30 29 29 29 30 30 31 31 31 31
28 27 26 25 23 24 24 23 23 23 23 25 24 25 26 25 25 25 27 27 26 24 25 23 25 30 34 35 36 36 35 30 29 28 27 28 28 29 30 30 31 31
26 25 24 24 24 23 23 22 22 23 24 23 23 24 24 24 23 24 25 24 23 22 26 25 23 26 33 34 35 35 33 29 28 26 26 26 27 27 29 29 29 30
25 24 23 23 22 21 22 22 24 23 22 22 24 23 21 21 22 22 19 21 21 21 22 23 23 23 27 33 33 33 34 30 27 25 25 25 26 26 26 26 28 28
MSLP
1020.51 1020.77 1021.03 1021.25 1021.53 1021.77 1022.07 1022.31 1022.63 1022.91 1023.29 1023.51 1023.57 1023.75 1023.71 1023.89 1023.83 1023.75 1023.83 1023.83 1023.89 1023.91 1023.97 1023.97 1023.93 1023.95 1024.03 1024.01 1023.99 1024.01 1024.17 1024.33 1024.41 1024.47 1024.49 1024.47 1024.43 1024.39 1024.35 1024.31 1024.25 1024.19
1020.55 1020.79 1021.09 1021.53 1022.03 1022.33 1022.51 1022.61 1022.85 1022.99 1023.31 1023.45 1023.63 1023.73 1023.83 1023.77 1023.87 1023.87 1023.89 1023.91 1023.95 1024.03 1024.09 1024.13 1024.19 1024.23 1024.25 1024.25 1024.27 1024.29 1024.33 1024.37 1024.47 1024.59 1024.67 1024.65 1024.65 1024.55 1024.49 1024.39 1024.29 1024.21
1020.75 1021.09 1021.49 1021.85 1022.19 1022.41 1022.61 1022.85 1022.99 1023.23 1023.37 1023.67 1023.73 1023.75 1023.87 1023.95 1023.93 1024.01 1024.07 1024.09 1024.13 1024.23 1024.33 1024.39 1024.41 1024.51 1024.53 1024.57 1024.57 1024.57 1024.61 1024.59 1024.69 1024.79 1024.83 1024.95 1024.93 1024.91 1024.81 1024.67 1024.49 1024.33
1021.45 1021.71 1021.95 1022.25 1022.37 1022.55 1022.81 1022.95 1023.31 1023.55 1023.69 1023.75 1023.99 1024.07 1024.05 1024.13 1024.13 1024.17 1024.33 1024.45 1024.49 1024.59 1024.67 1024.69 1024.75 1024.77 1024.77 1024.81 1024.81 1024.83 1024.91 1024.89 1024.99 1024.95 1024.93 1024.97 1024.97 1024.99 1024.93 1024.83 1024.73 1024.63
1021.69 1021.97 1022.19 1022.45 1022.69 1022.91 1023.09 1023.29 1023.57 1023.81 1023.93 1024.09 1024.07 1024.11 1024.11 1024.21 1024.35 1024.49 1024.65 1024.77 1024.81 1024.85 1024.87 1024.89 1024.95 1025.01 1025.05 1025.07 1025.15 1025.07 1025.21 1025.21 1025.25 1025.23 1025.13 1025.05 1024.99 1024.93 1024.83 1024.79 1024.75 1024.69
1022.07 1022.31 1022.55 1022.77 1023.01 1023.17 1023.47 1023.67 1023.81 1023.83 1023.95 1024.01 1024.19 1024.27 1024.41 1024.53 1024.67 1024.77 1024.83 1024.85 1024.93 1024.93 1024.97 1025.07 1025.09 1025.17 1025.21 1025.25 1025.29 1025.35 1025.41 1025.35 1025.31 1025.23 1025.15 1025.13 1025.05 1025.01 1024.97 1024.91 1024.89 1024.83
1022.41 1022.63 1022.93 1023.17 1023.39 1023.57 1023.63 1023.75 1023.85 1023.97 1024.11 1024.27 1024.33 1024.51 1024.65 1024.75 1024.83 1024.91 1024.93 1024.97 1024.99 1025.03 1025.09 1025.13 1025.15 1025.19 1025.31 1025.37 1025.39 1025.37 1025.33 1025.27 1025.23 1025.23 1025.19 1025.15 1025.17 1025.03 1025.03 1025.01 1024.95 1024.89
1022.73 1022.99 1023.23 1023.43 1023.49 1023.65 1023.69 1023.87 1024.03 1024.13 1024.29 1024.41 1024.53 1024.85 1024.85 1024.89 1024.95 1025.03 1025.05 1025.03 1025.05 1025.13 1025.19 1025.23 1025.23 1025.25 1025.33 1025.29 1025.19 1025.13 1025.05 1025.23 1025.23 1025.19 1025.15 1025.07 1025.05 1024.87 1024.81 1024.79 1024.75 1024.69
1022.93 1023.19 1023.35 1023.45 1023.53 1023.75 1023.87 1024.07 1024.25 1024.39 1024.53 1024.53 1024.73 1024.91 1025.07 1025.09 1025.09 1025.07 1025.11 1025.19 1025.21 1025.25 1025.19 1025.11 1025.15 1025.17 1025.21 1025.17 1025.13 1025.15 1025.11 1025.11 1025.17 1025.19 1025.09 1024.95 1024.81 1024.65 1024.57 1024.57 1024.55 1024.41
1023.03 1023.27 1023.33 1023.49 1023.63 1023.97 1024.07 1024.29 1024.39 1024.53 1024.71 1024.77 1024.97 1025.05 1025.01 1025.19 1025.25 1025.29 1025.31 1025.27 1025.13 1025.03 1025.05 1025.09 1025.11 1025.17 1025.17 1025.19 1025.17 1025.13 1025.07 1025.01 1024.97 1024.99 1024.95 1024.89 1024.77 1024.59 1024.45 1024.41 1024.31 1024.17
1023.11 1023.29 1023.39 1023.65 1023.91 1024.13 1024.27 1024.45 1024.59 1024.73 1024.83 1024.87 1024.95 1025.05 1025.29 1025.33 1025.39 1025.45 1025.23 1025.09 1025.05 1025.15 1025.17 1025.15 1025.19 1025.23 1025.19 1025.15 1025.13 1025.11 1025.05 1024.93 1024.85 1024.81 1024.79 1024.73 1024.67 1024.55 1024.43 1024.37 1024.21 1024.07
1023.25 1023.45 1023.63 1023.87 1024.09 1024.27 1024.45 1024.59 1024.69 1024.75 1024.91 1025.11 1025.19 1025.21 1025.35 1025.43 1025.31 1025.25 1025.23 1025.19 1025.31 1025.35 1025.35 1025.29 1025.27 1025.21 1025.17 1025.07 1024.99 1024.97 1024.93 1024.91 1024.87 1024.83 1024.75 1024.73 1024.61 1024.49 1024.37 1024.23 1024.07 1023.81
1023.41 1023.67 1023.87 1024.05 1024.23 1024.41 1024.59 1024.69 1024.83 1025.03 1025.05 1025.17 1025.31 1025.27 1025.23 1025.19 1025.29 1025.29 1025.47 1025.53 1025.49 1025.47 1025.35 1025.37 1025.31 1025.25 1025.15 1025.03 1024.93 1024.89 1024.85 1024.83 1024.79 1024.77 1024.73 1024.67 1024.51 1024.33 1024.17 1024.01 1023.87 1023.69
1023.63 1023.87 1024.03 1024.25 1024.47 1024.63 1024.73 1024.87 1024.99 1025.05 1025.15 1025.27 1025.25 1025.19 1025.27 1025.37 1025.47 1025.59 1025.69 1025.71 1025.57 1025.49 1025.49 1025.51 1025.41 1025.23 1025.09 1024.99 1024.93 1024.91 1024.89 1024.85 1024.81 1024.65 1024.51 1024.39 1024.19 1024.01 1023.89 1023.75 1023.61 1023.47
1023.71 1023.99 1024.23 1024.43 1024.63 1024.71 1024.75 1024.85 1024.99 1025.11 1025.23 1025.29 1025.33 1025.43 1025.57 1025.69 1025.81 1025.87 1025.75 1025.59 1025.57 1025.57 1025.53 1025.53 1025.39 1025.19 1025.05 1024.99 1024.87 1024.73 1024.77 1024.67 1024.57 1024.51 1024.41 1024.21 1023.93 1023.77 1023.69 1023.59 1023.35 1023.09
1023.81 1024.09 1024.35 1024.53 1024.61 1024.65 1024.81 1024.93 1025.05 1025.21 1025.29 1025.41 1025.57 1025.73 1025.81 1025.91 1025.91 1025.87 1025.75 1025.65 1025.57 1025.55 1025.51 1025.45 1025.33 1025.21 1025.03 1024.87 1024.85 1024.85 1024.73 1024.73 1024.65 1024.51 1024.35 1024.11 1023.87 1023.55 1023.31 1023.27 1023.07 1022.73
1023.97 1024.27 1024.43 1024.51 1024.71 1024.83 1024.93 1024.97 1025.13 1025.35 1025.55 1025.71 1025.83 1025.91 1025.93 1025.97 1025.95 1025.79 1025.77 1025.81 1025.77 1025.67 1025.47 1025.39 1025.37 1025.23 1024.99 1024.87 1024.75 1024.67 1024.65 1024.63 1024.55 1024.33 1024.17 1023.99 1023.77 1023.53 1023.15 1022.81 1022.57 1022.43
1024.05 1024.27 1024.43 1024.71 1024.91 1025.01 1025.05 1025.21 1025.41 1025.61 1025.75 1025.87 1025.93 1025.91 1025.95 1026.01 1025.89 1025.95 1025.99 1026.03 1025.97 1025.89 1025.81 1025.75 1025.65 1025.43 1025.17 1024.99 1024.83 1024.71 1024.63 1024.51 1024.39 1024.19 1023.93 1023.79 1023.63 1023.39 1023.09 1022.75 1022.39 1021.97
1024.09 1024.23 1024.49 1024.81 1025.15 1025.33 1025.43 1025.53 1025.67 1025.77 1025.81 1025.83 1025.81 1025.99 1025.97 1025.83 1026.01 1026.05 1026.09 1026.19 1026.17 1026.07 1026.01 1025.91 1025.87 1025.61 1025.35 1025.09 1024.91 1024.77 1024.61 1024.41 1024.27 1024.11 1023.93 1023.67 1023.51 1023.35 1023.07 1022.75 1022.39 1021.93
1024.29 1024.41 1024.65 1025.05 1025.39 1025.63 1025.75 1025.79 1025.73 1025.69 1025.85 1025.97 1025.99 1025.99 1025.99 1026.09 1026.19 1026.25 1026.29 1026.27 1026.29 1026.33 1026.25 1026.05 1025.87 1025.63 1025.37 1025.11 1024.91 1024.75 1024.57 1024.33 1024.21 1024.05 1023.85 1023.63 1023.47 1023.29 1023.01 1022.71 1022.43 1022.13
1024.53 1024.71 1025.01 1025.41 1025.71 1025.91 1025.97 1025.87 1025.75 1025.81 1025.87 1025.95 1026.01 1026.11 1026.19 1026.27 1026.29 1026.29 1026.27 1026.27 1026.37 1026.45 1026.43 1026.15 1025.87 1025.65 1025.45 1025.15 1024.87 1024.65 1024.45 1024.33 1024.23 1024.01 1023.73 1023.45 1023.25 1023.15 1022.97 1022.69 1022.45 1022.19
1024.55 1024.89 1025.31 1025.69 1025.97 1026.17 1026.07 1025.89 1025.87 1025.87 1025.85 1026.03 1026.17 1026.33 1026.45 1026.41 1026.29 1026.31 1026.29 1026.37 1026.43 1026.49 1026.49 1026.19 1025.79 1025.59 1025.43 1025.17 1024.83 1024.53 1024.33 1024.35 1024.17 1023.89 1023.57 1023.27 1023.01 1022.93 1022.83 1022.67 1022.51 1022.29
1024.59 1024.95 1025.43 1025.81 1026.15 1026.19 1026.07 1025.99 1025.87 1025.89 1026.01 1026.17 1026.19 1026.33 1026.33 1026.33 1026.41 1026.51 1026.61 1026.65 1026.57 1026.47 1026.45 1026.29 1025.87 1025.55 1025.39 1025.19 1024.95 1024.63 1024.37 1024.31 1024.05 1023.79 1023.53 1023.27 1022.93 1022.71 1022.61 1022.43 1022.31 1022.19
1024.71 1025.07 1025.45 1025.85 1026.11 1026.05 1026.03 1026.03 1026.05 1026.09 1026.15 1026.25 1026.29 1026.37 1026.39 1026.49 1026.63 1026.67 1026.69 1026.73 1026.63 1026.43 1026.27 1026.19 1025.95 1025.61 1025.41 1025.29 1025.09 1024.81 1024.61 1024.49 1024.23 1023.93 1023.55 1023.25 1022.81 1022.49 1022.33 1022.15 1021.99 1021.85
1024.93 1025.19 1025.53 1025.81 1025.99 1026.11 1026.11 1026.05 1026.07 1026.17 1026.27 1026.41 1026.49 1026.57 1026.61 1026.67 1026.75 1026.79 1026.73 1026.71 1026.57 1026.35 1026.11 1026.03 1026.03 1025.89 1025.61 1025.35 1025.09 1024.89 1024.69 1024.57 1024.37 1024.11 1023.67 1023.13 1022.77 1022.29 1021.95 1021.77 1021.57 1021.63
1025.09 1025.29 1025.59 1025.85 1025.99 1026.11 1026.15 1026.13 1026.21 1026.31 1026.43 1026.53 1026.55 1026.61 1026.71 1026.79 1026.89 1026.91 1026.75 1026.53 1026.35 1026.25 1026.11 1026.01 1026.01 1025.97 1025.67 1025.25 1025.07 1024.93 1024.71 1024.57 1024.47 1024.25 1023.81 1023.17 1022.75 1022.59 1022.19 1021.57 1021.39 1021.17
Wind_Speed
7 6 6 6 5 5 6 6 5 6 4 4 5 3 4 3 3 4 4 4 4 4 4 4 4 5 5 3 1 1 2 3 4 4 5 5 4 5 5 5 5 5
6 6 6 7 6 5 5 6 5 6 5 5 6 5 3 4 4 4 4 4 4 5 4 4 4 4 4 5 5 5 4 4 4 4 6 6 6 6 6 7 6 6
6 6 6 6 6 5 6 5 6 6 6 5 5 5 5 4 5 5 5 5 6 6 6 5 5 5 5 5 4 5 5 5 5 4 5 4 5 6 6 7 6 7
7 7 7 6 6 6 6 7 6 6 5 6 5 4 5 4 5 6 6 6 6 6 5 6 5 6 6 6 6 6 5 5 3 3 3 2 2 3 5 5 6 7
7 7 6 7 6 7 7 7 6 5 5 5 5 5 7 6 7 7 6 6 5 5 6 5 5 5 5 6 5 5 5 5 5 4 4 4 3 3 4 4 4 6
6 6 6 7 6 7 7 6 5 5 6 6 6 6 6 6 6 5 5 5 5 5 5 5 5 4 4 4 5 4 2 3 3 3 4 4 4 4 3 3 4 6
7 7 8 7 7 6 7 6 6 7 6 5 6 7 6 6 5 5 4 5 4 5 4 4 4 4 4 3 3 3 3 3 4 4 4 4 4 5 3 3 3 5
8 7 7 7 8 7 8 7 7 7 5 6 7 4 5 5 5 4 4 4 5 4 4 4 3 3 3 3 4 4 4 3 3 4 4 4 4 5 5 4 4 5
8 8 7 8 9 7 8 7 6 6 5 7 6 5 4 5 5 5 5 4 4 4 4 4 4 4 4 4 4 3 4 4 3 4 4 5 5 6 6 4 5 5
9 8 9 8 9 7 8 6 6 6 5 6 5 5 7 5 5 4 4 4 4 5 5 4 4 4 4 3 3 3 4 4 4 4 4 4 5 6 6 5 6 7
9 8 9 9 8 7 7 6 6 6 6 6 6 7 5 5 4 3 4 5 6 5 4 4 4 3 3 4 3 3 4 4 4 4 4 5 5 6 7 6 7 7
8 8 9 8 8 7 7 6 6 6 6 5 5 5 4 4 4 5 5 5 4 3 2 3 3 4 4 4 4 4 3 4 4 4 5 5 6 6 6 6 7 8
8 8 8 7 7 7 6 6 6 5 5 5 4 4 5 5 5 5 4 3 3 3 3 3 4 4 4 4 4 4 4 4 5 5 5 5 5 6 6 7 7 8
7 7 7 7 6 6 6 6 5 5 5 4 4 5 5 4 4 3 3 2 2 3 3 3 4 4 4 4 4 4 4 4 4 6 7 6 7 7 7 7 8 8
7 6 6 6 6 6 6 6 5 5 4 4 5 4 4 3 1 1 2 3 3 3 4 3 3 4 4 4 6 7 5 6 7 7 7 8 9 8 7 7 8 8
7 6 6 6 6 6 5 5 5 5 5 5 4 3 2 2 2 2 3 3 4 4 3 4 4 4 8 13 10 7 6 6 6 6 7 7 9 10 9 7 7 8
7 7 6 7 5 6 5 5 5 5 4 3 2 2 2 2 2 4 4 4 4 5 7 7 6 6 14 14 14 15 9 6 6 7 6 7 7 9 10 11 9 8
7 7 7 6 5 5 5 5 4 4 3 2 2 3 3 2 4 4 4 4 4 5 5 6 6 10 13 13 15 15 13 9 7 7 8 7 7 9 10 10 11 11
7 8 7 6 5 4 4 4 4 4 3 3 4 2 3 5 4 4 4 4 4 5 6 6 5 9 12 13 14 14 15 13 7 7 8 9 9 9 10 10 10 12
6 7 7 6 4 4 3 4 4 4 3 2 2 4 4 4 4 4 3 4 4 4 5 6 6 8 13 14 14 15 15 13 6 7 7 8 8 9 9 10 10 11
7 7 7 5 4 3 3 4 4 3 4 3 4 4 4 4 4 4 4 4 4 4 4 6 6 10 12 14 14 16 17 11 7 7 8 8 8 7 8 9 10 10
7 7 6 4 4 3 3 4 4 4 4 3 3 3 2 2 3 3 4 5 4 4 3 6 7 10 12 12 15 17 17 7 7 8 9 9 10 8 8 8 8 9
7 7 6 4 3 3 4 4 4 4 4 3 3 3 4 4 4 3 3 3 4 4 3 4 6 9 12 13 15 19 12 8 8 8 9 10 11 9 9 9 8 8
6 6 5 4 3 4 3 3 3 3 3 3 3 3 4 3 3 3 3 3 3 4 4 4 5 9 12 14 16 17 15 9 8 9 10 10 10 10 9 9 9 14
6 5 5 4 4 3 3 4 3 3 1 3 2 1 2 3 3 3 4 3 3 3 6 4 4 6 10 14 16 17 13 7 8 8 10 11 11 12 11 11 11 10
5 5 5 4 4 4 3 3 2 2 3 2 2 2 2 3 3 3 4 4 3 3 4 4 3 3 6 17 17 17 18 10 6 8 11 13 13 12 13 14 13 13
Wind_Direction
108 107 113 104 80 76 100 100 89 101 107 118 121 122 103 121 68 73 68 63 59 53 40 41 40 34 6 345 24 89 67 17 356 0 1 360 354 352 345 342 335 326
92 88 83 82 85 87 91 106 113 107 103 94 99 102 86 77 55 66 61 54 49 45 43 45 48 45 35 32 19 24 27 39 12 11 357 353 349 349 342 334 326 323
83 86 98 113 118 104 98 82 85 85 89 84 70 65 67 62 61 54 53 50 47 37 33 32 35 31 36 35 30 37 33 26 20 5 16 2 351 352 343 337 331 326
99 108 113 113 109 103 91 87 75 79 78 70 71 74 72 63 61 52 46 43 49 40 36 39 36 32 32 31 30 32 25 22 2 8 0 339 336 345 332 336 329 328
109 103 99 95 90 89 87 88 88 88 88 94 73 56 60 55 54 51 48 45 53 48 44 40 38 39 35 34 37 35 21 14 356 359 358 339 329 340 311 313 310 305
86 91 91 95 95 96 93 96 98 89 83 73 68 64 63 64 64 63 58 56 50 54 47 42 42 35 40 40 41 40 27 13 339 8 2 343 326 332 325 324 318 308
101 98 96 95 94 97 96 87 80 77 77 82 71 61 68 66 68 63 61 66 62 59 60 51 50 31 26 48 48 24 358 352 343 1 348 322 319 315 316 310 300 297
103 97 101 100 96 87 84 81 75 75 78 74 79 66 73 70 67 61 64 62 61 50 52 48 42 36 14 35 19 7 348 343 328 327 318 302 302 295 294 280 275 280
106 103 102 96 91 86 83 79 77 74 71 79 73 67 58 69 64 61 58 62 64 57 48 40 27 18 2 15 355 343 317 308 293 287 287 291 297 289 287 285 283 270
102 104 96 93 87 86 86 80 79 73 70 77 75 67 60 43 53 57 65 62 57 38 34 22 12 357 346 339 307 292 284 281 284 279 271 272 276 284 289 290 281 289
99 97 95 91 92 89 87 84 79 80 70 71 69 62 56 56 44 47 50 45 37 27 11 1 338 323 317 307 290 263 256 270 283 288 288 284 281 281 285 284 284 275
101 97 97 99 99 92 90 87 80 73 74 64 75 79 65 59 56 35 43 29 20 359 351 328 314 306 292 285 282 285 277 274 278 282 284 285 287 284 282 279 277 281
103 103 103 101 96 94 89 81 79 81 77 74 71 83 69 51 35 36 13 22 346 351 338 319 302 293 290 289 291 292 296 303 303 298 292 290 283 282 282 282 279 281
106 105 99 96 94 92 90 89 84 77 74 69 66 58 55 50 35 20 331 351 334 335 311 305 298 299 296 295 297 304 310 307 305 311 312 307 302 297 295 292 288 283
108 100 97 95 97 94 88 83 79 75 68 61 56 50 42 33 18 26 7 355 343 326 314 308 306 310 315 333 335 333 338 332 328 323 317 312 307 301 294 291 289 280
106 104 103 103 94 90 89 85 79 69 65 57 47 42 33 22 19 13 26 6 346 334 328 332 335 330 329 331 337 333 330 327 319 312 309 303 303 304 303 293 284 288
109 106 103 93 94 91 85 80 73 71 68 65 55 43 44 24 41 33 14 3 356 347 343 343 339 333 332 335 335 336 335 327 319 310 302 297 298 303 306 308 303 293
113 109 97 91 86 84 85 84 84 86 83 85 74 43 17 31 36 23 9 2 354 350 345 335 330 323 324 327 329 331 332 326 319 313 311 309 306 307 307 308 309 308
114 107 102 97 90 92 91 92 101 96 78 56 37 18 28 31 11 13 4 357 1 353 338 327 321 315 316 316 324 327 329 328 317 313 312 311 312 310 308 310 311 312
109 106 103 103 103 99 101 101 95 81 62 53 45 31 35 19 10 7 358 0 356 346 328 315 315 311 316 317 322 325 326 333 319 318 311 306 309 310 309 312 312 314
107 103 103 103 102 105 105 88 78 71 56 36 44 34 24 4 346 351 346 353 347 340 323 307 302 307 314 317 321 327 335 341 320 316 312 309 309 311 309 310 313 312
115 110 106 106 107 108 96 80 72 62 49 29 38 25 11 1 351 13 352 339 326 322 316 306 304 312 319 321 330 339 344 340 329 322 320 317 314 316 312 310 311 312
118 117 117 116 125 108 85 73 62 43 31 37 39 21 10 1 350 335 313 311 305 302 303 296 306 314 324 333 343 346 346 341 334 328 322 319 316 317 317 314 312 314
115 119 121 120 112 90 81 71 60 56 51 32 37 2 355 342 325 319 306 291 284 288 296 313 313 317 328 341 350 351 352 343 332 328 318 318 316 316 317 315 313 316
112 111 113 113 100 86 83 66 60 59 48 36 15 353 319 320 320 308 297 290 271 284 306 323 315 312 327 348 353 353 350 339 335 327 322 321 324 322 323 321 320 323
109 106 104 102 94 85 67 68 66 53 32 31 356 10 330 320 296 286 277 293 306 325 322 315 320 328 344 352 353 351 349 346 335 335 330 325 325 326 326 321 319 317